• In Uzbekistan
  • List of Countries
  • For 7 days
  • Water Temperature
  • Satellite Maps
  • Weather Map
  • Weather Widgets
  • user-avatar
    Login

    Hourly Weather Ropienka

    Today, 21 April, Saturday

    Time Temperature Precipitation Wind Pressure Humidity
    00:00 +9°C° 0 mm 1 mps 726 mmHg 73%
    01:00 +9°C° 0 mm 1 mps 726 mmHg 73%
    02:00 +7°C° 0 mm 2 mps 726 mmHg 72%
    03:00 +7°C° 0 mm 2 mps 725 mmHg 72%
    04:00 +7°C° 0 mm 2 mps 725 mmHg 71%
    05:00 +9°C° 0 mm 2 mps 725 mmHg 66%
    06:00 +11°C° 0 mm 3 mps 725 mmHg 62%
    07:00 +13°C° 0 mm 3 mps 725 mmHg 57%
    08:00 +15°C° 0 mm 4 mps 724 mmHg 53%
    09:00 +18°C° 0 mm 4 mps 724 mmHg 49%
    10:00 +20°C° 0 mm 5 mps 724 mmHg 44%
    11:00 +20°C° 0 mm 5 mps 724 mmHg 44%
    12:00 +21°C° 0 mm 5 mps 724 mmHg 43%
    13:00 +22°C° 0 mm 5 mps 723 mmHg 42%
    14:00 +22°C° 0 mm 5 mps 723 mmHg 45%
    15:00 +22°C° 0 mm 4 mps 723 mmHg 49%
    16:00 +22°C° 0 mm 4 mps 722 mmHg 52%
    17:00 +20°C° 0.2 mm 3 mps 722 mmHg 60%
    18:00 +18°C° 0.2 mm 3 mps 722 mmHg 68%
    19:00 +14°C° 0.2 mm 3 mps 722 mmHg 76%
    20:00 +15°C° 0 mm 2 mps 722 mmHg 77%
    21:00 +15°C° 0 mm 2 mps 722 mmHg 78%
    22:00 +14°C° 0 mm 2 mps 723 mmHg 80%
    23:00 +14°C° 0 mm 1 mps 723 mmHg 81%

    Tomorrow, 22 April, Sunday

    Time Temperature Precipitation Wind Pressure Humidity
    00:00 +13°C° 0 mm 1 mps 723 mmHg 83%
    01:00 +13°C° 0 mm 1 mps 723 mmHg 85%
    02:00 +12°C° 0 mm 1 mps 723 mmHg 87%
    03:00 +11°C° 0 mm 1 mps 723 mmHg 88%
    04:00 +10°C° 0 mm 1 mps 723 mmHg 90%
    05:00 +11°C° 0 mm 1 mps 723 mmHg 83%
    06:00 +12°C° 0 mm 1 mps 723 mmHg 77%
    07:00 +13°C° 0 mm 1 mps 723 mmHg 70%
    08:00 +14°C° 0 mm 2 mps 723 mmHg 62%
    09:00 +15°C° 0 mm 2 mps 723 mmHg 53%
    10:00 +17°C° 0 mm 3 mps 723 mmHg 45%
    11:00 +17°C° 0 mm 3 mps 723 mmHg 43%
    12:00 +18°C° 0 mm 3 mps 723 mmHg 40%
    13:00 +19°C° 0 mm 3 mps 723 mmHg 38%
    14:00 +18°C° 0 mm 3 mps 723 mmHg 39%
    15:00 +18°C° 0 mm 3 mps 722 mmHg 41%
    16:00 +18°C° 0 mm 3 mps 722 mmHg 42%
    17:00 +16°C° 0 mm 2 mps 722 mmHg 48%
    18:00 +14°C° 0 mm 1 mps 722 mmHg 55%
    19:00 +12°C° 0 mm 1 mps 722 mmHg 61%
    20:00 +11°C° 0 mm 1 mps 722 mmHg 63%
    21:00 +10°C° 0 mm 1 mps 722 mmHg 64%
    22:00 +10°C° 0 mm 1 mps 722 mmHg 66%
    23:00 +9°C° 0 mm 1 mps 722 mmHg 67%

    Day after tomorrow, 23 April, Monday

    Time Temperature Precipitation Wind Pressure Humidity
    00:00 +9°C° 0 mm 1 mps 722 mmHg 68%
    01:00 +7°C° 0 mm 0 mps 722 mmHg 69%
    02:00 +8°C° 0 mm 1 mps 722 mmHg 69%
    03:00 +8°C° 0 mm 1 mps 722 mmHg 70%
    04:00 +8°C° 0 mm 1 mps 721 mmHg 70%
    05:00 +10°C° 0 mm 1 mps 722 mmHg 65%
    06:00 +11°C° 0 mm 0 mps 722 mmHg 60%
    07:00 +13°C° 0 mm 0 mps 722 mmHg 55%
    08:00 +15°C° 0 mm 1 mps 722 mmHg 51%
    09:00 +18°C° 0 mm 1 mps 722 mmHg 46%
    10:00 +20°C° 0 mm 1 mps 722 mmHg 41%
    11:00 +21°C° 0 mm 1 mps 722 mmHg 40%
    12:00 +21°C° 0 mm 2 mps 721 mmHg 40%
    13:00 +23°C° 0 mm 2 mps 721 mmHg 39%
    14:00 +23°C° 0 mm 2 mps 721 mmHg 41%
    15:00 +23°C° 0 mm 2 mps 720 mmHg 44%
    16:00 +23°C° 0 mm 2 mps 720 mmHg 47%
    17:00 +20°C° 0.2 mm 3 mps 719 mmHg 55%
    18:00 +18°C° 0.2 mm 3 mps 719 mmHg 64%
    19:00 +16°C° 0.2 mm 3 mps 719 mmHg 72%
    20:00 +16°C° 0.9 mm 3 mps 719 mmHg 78%
    21:00 +14°C° 0.9 mm 3 mps 719 mmHg 84%
    22:00 +14°C° 0.9 mm 2 mps 719 mmHg 89%
    23:00 +14°C° 0.3 mm 2 mps 718 mmHg 91%

    24 April, Tuesday

    Time Temperature Precipitation Wind Pressure Humidity
    00:00 +14°C° 0.3 mm 2 mps 718 mmHg 92%
    01:00 +13°C° 0.3 mm 2 mps 718 mmHg 94%
    02:00 +13°C° 0.6 mm 2 mps 718 mmHg 95%
    03:00 +13°C° 0.6 mm 2 mps 719 mmHg 96%
    04:00 +13°C° 0.6 mm 2 mps 719 mmHg 96%
    05:00 +12°C° 0.8 mm 3 mps 719 mmHg 94%
    06:00 +13°C° 0.8 mm 4 mps 720 mmHg 92%
    07:00 +13°C° 0.8 mm 4 mps 720 mmHg 90%
    08:00 +13°C° 0.2 mm 4 mps 721 mmHg 84%
    09:00 +14°C° 0.2 mm 4 mps 721 mmHg 77%
    10:00 +15°C° 0.2 mm 5 mps 722 mmHg 70%
    11:00 +15°C° 0 mm 4 mps 722 mmHg 66%
    12:00 +17°C° 0 mm 4 mps 722 mmHg 61%
    13:00 +18°C° 0 mm 4 mps 722 mmHg 56%
    14:00 +18°C° 0 mm 4 mps 722 mmHg 56%
    15:00 +18°C° 0 mm 4 mps 722 mmHg 56%
    16:00 +18°C° 0 mm 3 mps 721 mmHg 57%
    17:00 +16°C° 0 mm 3 mps 721 mmHg 64%
    18:00 +14°C° 0 mm 2 mps 721 mmHg 70%
    19:00 +13°C° 0 mm 1 mps 721 mmHg 77%
    20:00 +12°C° 0 mm 1 mps 721 mmHg 78%
    21:00 +12°C° 0 mm 2 mps 721 mmHg 78%
    22:00 +12°C° 0 mm 2 mps 721 mmHg 79%
    23:00 +10°C° 0 mm 2 mps 721 mmHg 78%

    25 April, Wednesday

    Time Temperature Precipitation Wind Pressure Humidity
    00:00 +10°C° 0 mm 2 mps 721 mmHg 78%
    01:00 +10°C° 0 mm 2 mps 721 mmHg 77%
    02:00 +10°C° 0 mm 2 mps 721 mmHg 80%
    03:00 +10°C° 0 mm 2 mps 721 mmHg 82%
    04:00 +10°C° 0 mm 2 mps 721 mmHg 84%
    05:00 +11°C° 0 mm 3 mps 721 mmHg 80%
    06:00 +13°C° 0 mm 3 mps 722 mmHg 76%
    07:00 +14°C° 0 mm 3 mps 722 mmHg 72%
    08:00 +17°C° 0 mm 3 mps 722 mmHg 65%
    09:00 +18°C° 0 mm 4 mps 722 mmHg 59%
    10:00 +20°C° 0 mm 4 mps 722 mmHg 53%
    11:00 +20°C° 0 mm 5 mps 722 mmHg 53%
    12:00 +21°C° 0 mm 5 mps 721 mmHg 53%
    13:00 +22°C° 0 mm 5 mps 721 mmHg 53%
    14:00 +22°C° 0.1 mm 5 mps 721 mmHg 54%
    15:00 +22°C° 0.1 mm 5 mps 720 mmHg 56%
    16:00 +22°C° 0.1 mm 4 mps 720 mmHg 57%
    17:00 +20°C° 0.1 mm 4 mps 719 mmHg 63%
    18:00 +19°C° 0.1 mm 4 mps 719 mmHg 69%
    19:00 +17°C° 0.1 mm 3 mps 719 mmHg 75%
    20:00 +17°C° 0.3 mm 4 mps 719 mmHg 78%
    21:00 +15°C° 0.3 mm 4 mps 719 mmHg 82%
    22:00 +15°C° 0.3 mm 4 mps 719 mmHg 85%
    23:00 +15°C° 0.2 mm 4 mps 719 mmHg 85%

    26 April, Thursday

    Time Temperature Precipitation Wind Pressure Humidity
    00:00 +14°C° 0.2 mm 4 mps 718 mmHg 86%
    01:00 +14°C° 0.2 mm 4 mps 718 mmHg 86%
    02:00 +14°C° 0.1 mm 4 mps 718 mmHg 86%
    03:00 +14°C° 0.1 mm 4 mps 718 mmHg 86%
    04:00 +13°C° 0.1 mm 4 mps 718 mmHg 86%
    05:00 +14°C° 0.1 mm 4 mps 718 mmHg 84%
    06:00 +14°C° 0.1 mm 4 mps 719 mmHg 82%
    07:00 +15°C° 0.1 mm 4 mps 719 mmHg 80%
    08:00 +17°C° 0.1 mm 4 mps 719 mmHg 78%
    09:00 +17°C° 0.1 mm 3 mps 719 mmHg 76%
    10:00 +18°C° 0.1 mm 3 mps 719 mmHg 74%
    11:00 +17°C° 0.9 mm 3 mps 719 mmHg 78%
    12:00 +17°C° 0.9 mm 3 mps 719 mmHg 82%
    13:00 +16°C° 0.9 mm 3 mps 719 mmHg 86%
    14:00 +16°C° 0.7 mm 3 mps 719 mmHg 84%
    15:00 +16°C° 0.7 mm 3 mps 719 mmHg 83%
    16:00 +17°C° 0.7 mm 3 mps 718 mmHg 81%
    17:00 +16°C° 0.2 mm 3 mps 719 mmHg 84%
    18:00 +13°C° 0.2 mm 3 mps 719 mmHg 86%
    19:00 +12°C° 0.2 mm 3 mps 719 mmHg 88%
    20:00 +11°C° 0.2 mm 3 mps 720 mmHg 88%
    21:00 +11°C° 0.2 mm 3 mps 720 mmHg 87%
    22:00 +10°C° 0.2 mm 3 mps 721 mmHg 87%
    23:00 +9°C° 0.1 mm 3 mps 721 mmHg 86%
    Show more